Wind_Speed
9 9 9 7 6 8 6 3 1 1 2 1 4 4 2 2 0 2 6 6 3 3 4 3 4 3 3 2 4 5 3 3 3 3 1 1 4 10 15 17 17 14 11 9 5 7 12 12 8 9 11 11 11 11 10 11 11 13 13 14 14 15 15 14 13 13 14 14 13 13 12 12 12 12 13 13 14 14 14 14 14 15 15 15 15 17 18 17 17 16 15 13 12 13 12 10 9
8 7 8 7 8 6 2 2 1 2 3 3 5 4 0 1 2 5 7 6 4 4 4 4 4 4 3 5 4 4 3 2 7 4 2 9 9 14 23 22 21 17 11 9 7 6 9 13 10 8 10 12 11 11 11 12 11 12 13 13 14 15 14 14 13 13 14 14 13 13 12 13 13 13 14 14 15 15 15 15 15 16 17 16 16 16 17 16 15 15 15 14 13 14 13 12 11
7 6 7 6 5 3 2 1 2 3 0 4 4 3 1 3 6 7 7 6 5 4 2 3 2 2 4 3 3 3 2 6 10 4 4 16 11 15 27 25 23 18 12 12 11 6 6 10 11 9 8 11 11 11 12 12 12 12 13 14 15 15 15 14 14 14 14 15 14 14 14 14 15 15 15 15 15 16 16 16 16 17 17 17 17 16 16 16 15 15 15 14 14 15 15 14 13
7 4 6 7 2 2 2 1 3 3 4 3 3 4 5 6 7 6 6 7 5 4 2 4 1 1 2 4 4 3 3 5 10 9 4 13 14 19 28 27 22 17 15 14 13 8 5 8 10 10 8 9 12 12 12 12 13 13 13 14 15 16 16 15 14 14 14 15 15 15 15 15 15 15 15 16 16 16 17 17 17 17 17 17 17 16 15 15 15 15 15 15 15 16 17 16 14
7 4 5 6 2 0 1 2 3 2 4 3 3 4 6 7 7 5 3 8 5 5 3 4 2 2 2 1 2 1 4 4 11 18 10 14 23 25 27 26 22 18 17 14 11 8 5 8 10 11 10 9 11 13 12 13 14 14 14 15 15 16 16 15 14 14 14 15 15 15 16 15 15 15 15 16 16 17 18 17 17 17 17 16 16 16 15 15 15 15 15 15 15 17 19 17 16
8 7 6 3 2 2 2 2 2 5 3 4 3 4 7 7 7 6 3 7 5 5 4 4 3 5 1 1 1 3 6 6 9 18 16 19 26 25 24 23 20 19 19 16 11 6 7 9 11 12 12 11 12 13 14 14 15 15 15 15 16 16 16 16 15 15 15 15 16 15 15 15 15 15 15 16 16 17 18 18 18 18 17 17 17 17 16 15 15 15 16 15 15 18 19 18 18
7 5 4 2 3 1 2 2 3 4 2 4 4 5 7 7 6 6 5 4 3 4 2 3 5 4 1 2 2 8 19 19 11 16 20 21 23 23 23 22 19 21 20 17 13 9 9 12 13 14 14 14 13 14 16 16 16 15 16 16 16 16 16 16 16 16 17 18 18 16 16 16 16 16 16 17 16 17 18 19 19 19 19 18 18 18 18 17 16 15 15 16 16 18 20 18 19
3 3 1 1 2 2 3 0 5 3 2 3 5 6 5 6 5 4 6 4 3 3 3 5 5 2 3 6 2 10 24 26 19 22 25 23 23 23 22 23 21 22 22 17 13 11 12 14 15 15 15 15 15 15 16 17 17 16 17 18 18 18 17 16 16 16 17 18 18 16 16 16 17 18 17 18 17 18 19 20 19 19 20 19 19 18 19 19 18 17 16 15 16 19 19 18 21
4 2 0 0 2 3 4 3 4 2 4 3 6 6 4 6 5 4 4 3 4 2 4 7 3 2 5 6 5 9 19 22 23 27 28 24 23 24 23 24 24 24 25 23 18 13 12 15 17 17 17 16 17 16 16 17 18 17 18 19 20 19 18 18 18 18 18 18 19 17 16 17 18 18 18 18 18 19 19 19 19 20 20 20 20 19 19 20 20 19 18 16 16 19 19 19 23
3 3 0 0 2 4 3 3 4 2 5 4 6 7 4 5 3 4 4 4 4 2 7 6 2 4 6 4 7 7 15 23 28 30 29 24 21 25 25 23 23 23 27 28 25 20 15 16 18 19 19 18 17 17 18 18 18 18 19 20 20 21 20 20 19 20 20 20 20 19 18 19 20 19 19 19 19 19 19 20 20 21 21 22 21 21 21 21 21 21 21 18 17 19 19 21 25
1 2 0 1 3 2 2 3 4 3 5 5 6 7 4 3 1 4 7 5 5 5 8 7 2 4 6 5 5 8 23 30 32 31 27 24 21 22 23 22 21 20 24 27 27 26 22 19 19 20 21 20 19 18 18 19 20 19 19 20 20 21 21 21 21 21 22 22 21 21 21 21 21 21 20 19 19 18 20 21 20 20 21 23 22 21 21 21 21 20 21 20 18 19 20 23 27
2 2 1 2 4 2 2 2 3 4 5 5 5 6 2 4 3 5 7 5 6 8 8 7 2 4 4 4 3 11 28 31 28 26 24 24 23 21 21 22 22 19 22 24 24 26 25 23 21 20 21 22 22 20 19 18 20 21 20 20 20 21 22 23 22 22 23 23 22 23 24 23 23 22 21 20 20 19 20 21 20 19 20 22 22 21 20 20 20 19 21 22 21 20 21 25 28
2 4 3 3 4 2 2 2 3 3 3 5 5 4 1 3 6 6 6 5 8 7 5 5 4 2 3 2 4 11 21 26 26 24 23 23 23 23 22 23 25 24 24 25 25 26 26 25 22 21 21 21 22 22 21 20 20 21 22 22 22 22 23 23 23 23 24 25 24 24 25 24 22 21 21 20 19 20 20 21 20 18 18 19 20 20 19 19 20 19 22 22 23 23 23 27 30
1 3 2 3 5 3 2 2 3 4 3 4 4 2 2 4 6 5 5 5 7 4 3 5 6 2 3 5 6 8 14 25 26 23 23 21 21 22 23 24 25 27 28 28 29 29 28 27 25 23 22 21 22 21 21 21 21 21 22 24 26 26 25 25 25 25 25 26 26 25 25 25 23 22 22 21 20 21 22 22 21 19 19 19 19 20 19 19 19 20 23 22 23 26 25 29 31
2 3 1 3 4 1 2 2 2 3 4 4 2 2 4 6 5 5 4 3 3 2 3 4 7 2 5 8 5 7 15 24 24 23 23 21 21 22 23 24 25 27 27 28 30 30 30 30 28 26 25 23 22 22 21 21 22 22 22 23 25 27 28 28 27 27 27 27 28 27 27 27 26 25 25 24 22 23 23 23 22 21 21 20 20 21 19 19 19 20 23 22 22 27 27 29 31
2 2 1 3 4 1 2 3 3 3 2 3 3 3 6 6 5 4 2 2 0 1 2 6 9 7 9 9 7 11 19 22 24 25 25 23 23 22 24 25 25 27 27 27 28 30 30 31 31 30 29 27 24 23 22 21 21 22 23 24 24 24 26 28 29 30 29 29 29 29 29 28 27 26 27 25 23 23 24 23 22 21 22 21 20 21 20 19 18 18 21 20 22 28 29 30 32
2 1 1 4 2 3 3 4 5 3 2 2 2 6 6 4 5 3 1 3 1 4 6 9 14 13 11 10 13 19 21 23 25 27 26 25 23 22 24 25 26 26 27 26 26 30 30 31 32 31 31 30 28 25 23 22 21 22 23 24 25 24 25 27 29 30 31 31 32 32 31 28 28 27 26 25 24 24 25 24 21 21 21 22 21 21 19 17 16 16 18 19 23 29 31 31 32
1 1 2 4 1 2 3 4 5 4 4 6 6 7 5 4 4 3 3 3 2 8 9 10 14 15 14 17 20 22 22 24 25 26 25 24 22 21 21 24 25 26 27 27 26 29 31 31 31 32 32 32 31 29 25 23 21 21 22 24 25 25 26 27 28 28 30 33 35 34 32 30 30 29 27 26 25 25 26 24 22 22 23 24 23 21 18 14 15 15 16 18 23 28 31 31 32
2 1 2 2 3 1 4 5 5 5 5 6 7 7 5 5 4 4 3 4 6 9 8 9 11 12 14 18 20 21 22 23 24 25 24 23 22 19 19 22 23 25 27 28 27 28 30 31 31 32 32 31 32 31 29 25 23 22 22 24 24 25 26 26 27 27 28 31 35 36 33 30 30 31 30 28 26 25 26 24 23 25 25 25 24 22 18 13 14 15 14 17 24 29 31 32 33
0 1 1 1 2 1 2 5 5 5 7 6 6 5 4 5 4 3 1 7 9 8 7 8 9 10 10 12 16 19 20 22 23 23 22 22 22 21 20 22 23 24 26 26 26 27 30 31 31 32 31 31 32 32 31 28 25 25 24 24 24 26 27 28 27 27 28 29 32 34 32 29 30 31 31 30 28 26 25 24 24 26 26 26 24 21 18 14 14 15 14 18 26 31 31 31 35
1 0 1 2 2 2 1 3 5 5 6 4 5 4 4 4 2 2 2 6 7 7 7 8 9 9 9 9 12 17 18 19 20 20 20 21 22 22 22 23 24 24 25 25 25 25 28 30 31 31 31 31 31 32 31 28 28 27 26 25 25 25 27 29 30 28 28 27 29 31 31 30 30 31 31 32 31 28 26 25 24 25 26 25 23 20 18 16 15 15 18 23 26 30 29 30 36
1 1 2 5 3 3 1 3 4 5 4 4 5 3 3 3 2 6 7 7 5 6 8 9 8 8 9 9 11 14 15 16 18 18 19 20 21 22 22 23 24 24 24 25 24 24 26 29 29 30 31 30 30 31 30 28 28 27 26 26 27 27 27 29 31 32 31 29 29 31 31 30 30 31 32 32 32 30 28 26 25 26 26 25 23 21 18 17 15 14 21 25 24 27 28 30 36
2 2 4 5 2 2 1 3 3 5 2 4 3 3 2 1 6 7 8 9 7 8 8 8 8 9 11 11 11 11 12 12 15 18 18 20 21 21 22 22 23 23 23 24 24 24 26 29 28 28 31 30 30 31 30 29 29 27 27 26 27 28 28 28 30 33 34 33 32 31 31 30 30 32 33 33 31 30 30 27 27 27 26 25 24 21 19 16 16 16 21 23 23 26 28 32 35
3 2 4 4 1 4 3 4 2 3 1 3 3 2 4 4 7 6 9 10 9 9 8 8 10 11 12 11 10 10 11 13 15 18 19 19 20 21 21 22 23 23 23 24 24 23 25 28 26 27 29 29 30 31 30 29 29 28 28 27 26 27 29 29 29 31 33 35 34 33 32 31 31 32 33 34 32 32 34 31 29 28 26 25 24 23 21 19 19 20 20 21 23 25 27 31 35
5 2 3 3 2 3 4 5 3 1 2 2 5 4 4 6 8 8 9 10 9 9 7 8 9 10 10 9 9 9 10 13 15 18 18 18 20 20 21 23 24 24 24 24 23 23 24 26 24 25 27 26 28 29 29 30 29 30 29 28 28 27 28 29 30 31 32 34 35 35 35 34 34 34 33 34 33 34 35 33 29 27 27 27 26 25 23 23 24 24 22 22 22 23 23 26 32
3 1 1 2 3 4 4 5 3 2 1 3 6 3 5 9 10 8 8 10 8 8 7 7 7 8 9 8 9 9 8 11 14 15 16 17 20 21 21 23 24 23 23 23 23 24 25 26 24 24 26 25 26 27 28 28 28 29 30 30 30 28 28 29 31 31 31 33 34 36 37 36 37 37 36 34 34 36 37 35 29 28 29 28 28 26 25 26 26 26 25 24 22 22 24 24 28
1 2 4 4 6 4 3 5 3 4 0 3 4 5 3 9 6 5 8 9 8 8 7 6 7 7 9 8 7 8 8 10 13 14 15 17 20 22 21 22 24 24 25 25 25 27 28 29 28 28 29 28 29 31 30 30 29 30 30 30 30 30 30 30 31 32 32 32 33 35 38 38 37 37 37 35 34 36 38 37 31 30 31 30 29 27 27 27 27 27 28 28 26 25 27 28 29
2 3 6 6 7 4 4 5 3 4 1 4 5 6 2 6 3 6 11 9 9 9 7 6 6 7 8 8 7 7 8 10 13 14 16 17 19 21 21 22 24 24 25 26 26 28 30 30 30 30 31 31 33 34 34 34 33 33 32 31 31 31 32 32 32 33 33 34 34 34 37 38 38 37 36 35 33 34 38 40 36 33 33 31 30 29 29 28 27 29 30 31 31 29 30 32 34
4 4 4 4 6 5 6 6 4 5 1 4 5 5 3 7 6 12 12 9 9 9 7 6 6 6 7 7 5 5 7 10 13 15 17 17 18 21 21 21 23 24 24 25 26 27 29 29 29 29 30 30 32 33 33 34 34 34 34 32 31 33 34 33 32 33 33 34 35 36 36 36 38 39 37 36 34 35 38 42 41 39 35 33 33 31 31 30 28 30 31 31 32 32 33 35 34
4 3 2 2 4 5 7 7 5 6 2 2 3 3 4 6 11 13 11 10 10 8 6 5 5 6 6 5 5 4 7 10 12 15 18 18 18 20 21 21 23 24 25 26 27 27 28 28 28 28 29 30 32 32 32 33 33 34 33 32 32 34 34 33 34 34 34 34 35 36 37 36 37 39 40 38 36 39 39 38 41 43 41 38 36 35 34 33 31 32 32 31 32 34 36 36 34
3 1 1 3 3 3 8 7 6 6 2 3 2 2 3 5 12 11 9 9 9 8 6 5 6 6 5 5 5 4 5 10 13 15 19 19 18 20 21 21 23 25 25 27 27 27 29 29 28 29 30 32 33 34 34 36 36 35 33 32 33 33 32 34 36 36 35 34 35 35 36 36 36 36 40 40 39 42 39 34 36 39 42 43 41 40 38 36 33 33 34 32 31 32 35 36 34
2 0 2 3 1 2 6 5 5 4 1 5 4 3 1 6 10 9 9 8 9 9 6 6 6 6 5 4 4 3 4 10 14 15 17 19 18 20 21 22 24 25 25 27 27 28 30 30 29 30 30 32 34 33 34 37 39 38 35 33 32 32 32 34 36 37 36 36 35 36 36 36 36 35 36 38 41 44 40 37 40 38 37 40 42 43 40 38 35 34 36 34 32 31 32 35 34
3 1 2 3 3 2 3 2 4 3 1 4 4 3 2 4 8 8 9 8 9 9 6 7 5 5 5 3 3 3 4 7 10 12 17 19 18 21 23 24 25 24 25 26 26 28 29 28 28 29 31 33 33 33 34 36 38 39 37 34 33 32 32 34 34 35 38 37 36 36 36 35 35 37 37 36 39 44 41 38 42 41 34 34 39 43 43 40 38 36 36 36 36 34 33 34 34
2 1 2 4 4 4 2 3 4 4 3 3 1 4 5 4 9 7 8 8 9 9 7 7 5 4 5 3 3 4 5 6 7 10 15 17 18 21 23 23 24 23 25 25 24 26 27 27 27 29 31 33 33 33 34 35 36 37 36 35 34 32 32 34 35 35 37 38 38 36 35 35 36 37 37 36 36 40 43 41 43 44 36 33 36 39 42 42 41 40 38 38 39 38 35 34 34
3 4 4 5 5 5 6 4 2 3 3 2 4 6 6 5 10 7 8 8 8 8 6 6 5 5 4 4 4 4 5 4 4 7 12 16 19 22 22 22 22 24 26 26 27 28 27 27 29 31 32 32 32 33 34 34 35 35 35 34 33 33 33 33 36 36 35 37 37 36 35 35 34 34 35 34 32 34 38 40 43 45 40 37 38 38 41 44 41 42 42 40 40 40 38 37 36
4 5 4 5 5 5 9 5 2 2 1 3 5 6 7 5 9 8 7 7 7 8 6 5 4 4 4 4 4 5 4 3 4 7 13 18 20 21 21 21 23 26 26 27 29 29 28 30 32 32 32 32 32 34 34 34 34 33 33 33 33 33 34 34 37 36 34 35 35 35 34 33 33 35 36 35 32 30 33 36 38 41 41 38 39 39 43 47 45 44 45 44 40 36 36 36 34
4 4 4 6 6 6 8 4 3 3 1 3 5 7 11 8 7 10 8 7 8 7 6 5 4 4 4 4 4 4 1 2 5 9 15 19 19 21 23 24 26 27 28 29 29 28 30 32 33 33 34 35 35 35 35 35 34 33 32 32 33 34 36 36 37 36 34 35 36 34 31 32 35 37 37 38 35 31 32 36 36 37 38 36 38 41 44 50 51 49 47 46 44 38 33 34 34
4 5 5 6 6 5 5 3 3 4 2 2 6 9 13 10 5 11 9 8 7 7 7 6 5 5 4 5 4 2 1 3 6 9 14 18 19 24 26 25 27 27 28 30 29 29 32 32 31 33 35 36 36 36 36 36 35 35 34 34 35 37 39 37 35 36 36 36 37 34 30 32 37 38 38 38 36 32 32 37 40 38 37 35 38 43 45 51 53 51 48 44 43 43 38 37 38
5 5 5 6 4 3 4 1 2 3 2 4 8 8 10 8 5 11 9 7 6 6 6 5 5 5 4 4 3 2 3 4 5 7 11 17 21 24 25 26 27 27 28 29 28 30 31 30 31 32 34 35 35 36 36 37 38 39 38 37 38 39 40 39 37 38 37 36 36 35 32 32 36 40 40 38 35 32 33 37 41 41 37 35 36 40 42 49 52 50 49 46 42 39 36 40 46
5 5 5 5 1 3 2 2 5 7 6 7 8 6 7 4 6 9 7 6 6 6 6 5 5 5 4 3 3 3 4 4 5 6 8 15 18 21 24 27 29 29 29 29 29 31 30 30 31 32 35 36 35 36 36 39 41 42 41 40 40 40 40 40 39 38 36 34 34 34 33 33 36 41 42 39 36 31 31 37 39 40 37 33 34 35 34 40 50 51 50 50 45 36 30 36 46
4 4 3 3 1 1 3 4 7 8 7 6 5 6 6 5 9 7 6 7 6 7 7 6 5 5 4 3 4 4 4 5 5 5 7 11 14 18 23 25 28 28 28 30 32 32 32 32 32 34 37 37 36 37 40 41 42 42 40 39 38 36 36 36 34 34 34 33 33 33 33 33 34 39 42 40 37 31 27 32 36 37 36 32 31 31 32 34 43 49 49 50 49 43 34 33 40
4 1 1 1 0 3 5 6 6 5 4 2 2 5 5 6 10 7 6 6 7 7 8 7 6 5 3 3 5 5 5 4 4 5 6 9 13 20 23 23 25 26 27 30 31 32 34 34 35 38 38 37 37 39 42 42 40 39 38 36 34 32 32 32 30 31 35 35 34 34 34 33 32 34 39 40 36 32 28 29 34 36 35 33 32 31 31 33 39 45 49 51 51 50 43 34 35
3 2 1 1 2 5 6 6 4 2 5 3 2 3 5 2 7 8 8 7 8 7 6 7 6 4 4 4 4 4 4 3 4 5 6 9 15 20 21 23 25 27 30 31 30 33 35 34 37 40 40 38 37 39 42 42 39 38 37 36 35 34 33 34 35 34 36 37 35 35 35 34 32 30 34 38 36 32 28 27 31 34 35 34 33 33 33 33 37 43 48 52 51 50 46 37 36
2 4 2 1 3 6 7 6 4 4 6 5 4 5 6 6 5 10 12 9 8 8 6 6 5 4 5 4 4 3 3 4 4 5 6 9 15 18 20 23 25 28 31 31 33 36 35 35 39 42 41 39 39 41 42 41 37 35 37 38 38 38 37 38 39 37 37 38 37 35 34 33 32 31 32 35 35 31 27 26 28 31 35 35 33 34 37 36 36 39 41 46 50 49 48 43 41
2 2 3 3 5 8 7 6 6 5 5 5 5 5 5 6 2 7 10 10 9 9 8 7 5 5 4 4 3 3 4 4 4 5 7 11 16 20 22 23 25 27 29 33 36 37 35 37 40 43 42 40 41 43 41 38 37 39 41 42 43 43 42 41 40 38 37 37 37 37 35 32 32 32 32 32 33 31 26 24 24 27 31 33 33 35 38 40 38 39 40 40 45 49 50 47 43
1 2 4 5 6 8 7 6 5 4 5 7 6 6 5 5 2 6 7 7 9 9 7 6 6 5 4 3 2 3 3 4 5 5 9 14 17 21 24 24 26 27 30 35 37 37 37 38 39 43 43 40 40 40 39 41 44 44 43 43 43 43 44 44 42 40 37 35 37 38 36 32 30 30 30 30 31 29 25 22 20 22 27 30 32 35 38 41 39 39 44 45 44 47 49 46 45
2 4 4 5 6 7 5 6 4 3 5 5 5 4 5 4 3 6 5 4 7 8 7 6 5 4 3 2 1 3 4 4 5 7 10 15 19 21 22 23 25 27 30 34 35 37 37 36 38 42 41 39 41 41 43 45 43 39 39 41 42 41 42 44 43 40 36 33 35 37 36 32 29 29 29 28 29 27 25 23 21 21 25 29 30 32 36 38 40 39 42 45 44 44 46 47 46
2 1 4 4 5 4 3 1 1 1 5 2 4 5 2 5 3 3 4 4 8 8 7 7 5 3 2 2 2 4 5 5 6 7 9 13 16 19 21 22 25 27 29 32 34 36 36 35 36 37 38 41 44 44 45 45 39 36 39 40 39 38 39 41 42 40 36 33 33 36 37 33 30 28 26 25 27 26 24 24 24 24 26 29 28 29 35 35 37 41 42 42 43 44 44 46 44
2 2 3 3 4 3 2 1 1 3 5 3 5 6 2 7 6 4 8 7 8 8 7 7 5 3 3 4 5 5 5 6 7 7 7 9 11 16 20 23 25 26 29 31 33 35 36 36 34 34 38 42 42 42 44 45 42 39 39 36 35 36 39 42 42 39 36 33 32 34 35 33 29 26 23 23 26 26 23 22 22 23 26 30 30 28 32 36 35 36 43 44 45 47 45 45 45
4 3 1 3 1 3 4 3 2 4 4 4 4 3 4 6 6 4 10 9 8 9 7 7 6 5 4 3 3 4 5 6 6 6 7 8 11 16 20 22 25 26 28 30 31 34 37 36 36 37 39 41 42 42 42 43 42 39 37 35 37 39 41 42 40 37 35 34 34 35 35 32 28 26 24 23 25 24 23 21 20 21 23 27 29 29 29 32 37 36 37 44 45 47 48 47 46
4 3 4 3 2 3 5 2 2 4 5 5 1 2 4 4 2 4 11 9 8 8 7 7 6 5 3 2 3 5 5 5 5 6 7 9 13 18 21 23 25 25 28 29 30 33 34 35 38 39 39 41 42 42 41 40 39 39 38 38 39 38 37 38 37 35 34 34 35 37 39 37 32 29 26 24 23 24 24 22 20 20 21 23 26 27 27 28 33 38 35 40 46 45 46 48 47
2 2 3 1 3 4 4 1 3 2 6 6 2 2 5 2 2 6 10 8 8 8 6 7 4 3 4 4 4 5 5 5 5 6 7 10 15 19 20 22 24 25 28 28 29 33 33 34 38 40 40 40 39 39 41 41 41 41 40 39 39 36 37 39 39 38 38 37 38 37 38 41 37 31 28 24 23 24 25 24 20 18 19 20 23 24 25 26 29 35 37 34 44 46 45 48 47
0 1 1 3 2 2 1 3 0 2 5 6 2 3 4 2 2 5 8 8 8 7 6 6 4 4 5 3 2 3 4 5 5 6 7 11 15 18 21 22 23 26 28 28 30 33 33 33 35 37 40 39 37 38 40 40 40 40 38 36 36 36 38 40 39 40 41 42 44 42 40 42 38 33 29 25 24 25 26 25 20 17 17 18 20 21 21 22 25 30 35 33 35 44 44 47 47
2 2 2 1 1 2 1 2 2 1 6 6 4 5 6 3 3 4 8 7 6 6 6 5 4 4 2 0 2 4 5 5 5 7 8 11 14 18 21 22 24 26 27 27 29 31 31 32 32 33 36 36 37 40 40 39 38 38 37 36 36 37 38 38 37 39 39 39 42 44 42 43 42 36 30 26 24 25 27 26 21 16 15 16 18 20 19 19 21 26 30 34 32 39 41 41 45
2 2 1 2 1 1 2 1 1 3 7 6 4 7 6 5 4 6 8 7 5 4 4 4 3 3 1 2 4 5 5 5 5 7 8 9 13 18 20 22 25 26 26 26 27 28 31 33 31 32 35 35 36 38 38 39 37 36 36 36 37 37 37 36 35 38 39 37 38 39 40 41 42 39 33 28 27 27 27 26 21 16 14 16 17 18 20 20 20 23 26 31 33 34 40 38 41
2 1 2 1 2 3 3 2 2 4 6 7 8 8 4 4 4 8 8 6 6 3 3 3 2 2 2 3 4 5 5 5 6 8 8 9 14 19 20 23 26 27 27 26 26 28 32 33 31 34 38 38 37 37 37 38 37 35 36 36 35 35 37 36 35 35 37 38 38 37 36 36 37 39 38 33 29 29 28 25 22 17 13 16 18 18 20 22 21 23 23 26 33 32 38 40 41
3 2 3 2 2 2 2 2 2 4 6 5 8 9 4 2 1 6 7 6 7 5 2 2 2 3 3 3 4 5 5 6 7 8 8 10 15 19 21 25 28 28 28 27 27 30 33 32 32 35 38 39 39 39 39 39 37 34 34 35 34 34 37 37 35 34 35 36 37 36 34 34 35 37 37 36 32 31 31 27 23 19 15 16 19 18 19 22 22 24 24 23 29 33 34 40 40
4 5 6 6 5 4 2 5 3 3 5 5 6 11 6 3 1 4 6 6 6 5 3 3 3 4 3 3 4 5 5 6 8 9 9 10 14 18 22 28 29 28 29 29 29 31 33 33 34 35 36 37 37 38 39 40 38 35 35 35 35 34 36 36 34 35 35 34 35 34 34 34 34 34 33 32 33 34 34 31 25 22 18 16 18 19 18 20 21 23 25 24 25 32 33 37 39
Wind_Direction
343 341 329 319 308 291 267 236 266 213 207 35 70 81 71 89 34 7 40 34 62 59 25 355 341 350 330 290 300 316 291 297 10 13 51 170 88 48 17 6 358 348 338 338 313 296 312 313 296 254 241 239 231 219 219 225 223 222 223 223 224 223 228 229 225 226 226 227 226 226 231 237 243 243 243 240 240 242 246 251 258 263 265 264 258 254 250 244 240 237 234 227 226 232 234 227 213
349 330 308 297 287 283 272 200 259 259 193 87 55 63 172 165 66 36 42 39 44 39 9 335 326 352 312 239 271 307 293 12 43 28 50 38 40 19 1 352 349 344 330 324 317 295 303 312 308 278 248 242 236 225 221 227 230 226 227 224 224 227 230 232 231 230 227 230 231 231 235 241 246 247 245 244 243 244 246 249 254 262 269 273 268 262 259 251 245 241 236 227 221 227 234 226 213
345 320 301 297 269 238 290 231 245 283 99 84 61 60 59 38 48 41 47 57 52 37 340 299 294 352 310 286 331 309 360 44 41 11 36 34 18 357 353 347 348 346 330 314 316 306 279 301 307 299 267 248 241 232 226 229 235 233 233 229 227 230 232 234 235 233 230 231 234 237 240 244 246 247 247 248 249 248 246 248 253 260 269 274 273 268 264 259 252 248 241 232 222 224 232 226 215
349 344 304 303 271 195 273 219 246 309 22 62 76 54 53 46 46 35 49 77 67 42 343 331 346 181 341 3 349 310 15 32 39 26 37 38 15 356 352 350 353 346 335 320 320 324 284 284 291 293 281 259 247 238 230 229 237 240 239 238 235 234 234 236 236 237 237 233 236 241 242 244 244 245 248 253 255 253 249 247 250 257 265 271 273 271 267 265 260 254 248 238 226 225 231 227 215
349 339 287 299 313 238 292 257 286 39 32 7 68 62 53 45 43 18 53 95 81 62 20 2 11 324 62 82 333 344 3 343 36 33 30 24 5 356 354 353 353 343 344 336 325 335 313 291 286 286 280 265 252 244 238 234 239 243 244 244 242 240 238 240 239 240 242 238 239 244 246 244 243 244 248 255 258 256 253 251 251 254 260 267 271 271 268 266 264 260 254 245 231 228 232 227 212
324 306 251 247 289 319 316 261 347 80 49 352 50 62 53 43 35 353 23 93 103 93 37 22 14 321 324 166 63 77 44 33 41 31 20 6 354 354 357 356 354 345 350 351 342 335 313 302 297 293 283 272 258 249 247 245 244 246 249 248 247 245 243 244 244 244 244 242 243 246 247 245 245 246 248 254 256 254 253 252 253 254 258 263 267 269 268 266 265 263 260 251 239 234 235 228 211
322 316 222 217 282 273 279 273 47 71 16 358 52 51 48 43 24 349 3 62 115 94 58 65 13 317 322 331 45 64 59 61 47 23 11 2 359 1 4 3 358 351 353 360 0 345 317 307 304 301 291 281 270 257 251 250 252 253 254 251 249 248 247 248 248 247 248 249 251 249 244 246 249 250 252 253 253 250 249 250 249 251 253 257 260 264 266 266 266 266 265 258 247 240 237 227 210
303 318 201 341 300 193 252 238 56 51 58 30 71 58 45 40 15 2 359 11 72 52 92 89 10 347 25 344 49 57 55 53 32 21 15 13 13 8 12 13 5 358 359 1 358 341 320 312 311 310 300 290 281 272 260 254 252 253 257 256 252 250 251 251 250 250 250 254 258 254 245 248 253 252 253 253 253 249 247 250 250 250 251 254 258 263 265 267 269 269 266 260 254 245 238 225 208
224 223 327 6 295 253 255 130 82 61 101 90 95 85 59 40 6 6 347 351 42 1 54 65 20 26 340 340 78 55 44 39 25 21 16 15 15 13 18 16 11 6 5 4 360 346 325 318 320 320 315 304 290 280 271 262 254 249 252 256 256 254 253 252 252 252 250 251 255 254 247 248 253 253 252 250 249 248 250 253 253 252 251 253 259 266 268 267 270 272 268 256 254 250 236 220 206
222 188 276 324 288 260 276 91 95 104 95 83 89 79 53 41 4 348 357 359 15 50 43 30 90 38 326 5 78 59 41 33 25 19 12 11 9 14 19 15 13 14 12 9 7 3 347 332 329 329 328 323 309 291 277 268 260 252 247 251 256 256 255 255 253 252 251 249 252 252 247 247 250 252 252 252 249 248 254 257 256 257 256 256 260 266 266 266 267 269 269 253 248 250 234 216 206
294 198 225 319 287 273 353 64 96 106 99 104 92 71 39 24 343 354 15 355 351 67 45 5 55 359 321 65 91 62 40 30 25 16 9 9 4 8 14 11 9 14 12 10 10 8 2 353 344 338 336 335 330 314 292 275 265 259 252 250 252 254 255 257 257 254 252 250 252 254 252 251 251 253 255 256 258 255 255 258 259 259 262 261 262 265 264 264 266 267 268 256 246 248 235 215 208
328 299 339 295 282 332 25 21 81 100 114 116 91 74 14 352 37 20 5 342 14 56 47 5 342 299 314 79 110 53 39 29 24 15 12 15 15 14 14 12 11 14 10 9 11 9 7 3 356 348 341 337 336 332 318 295 276 267 261 257 255 256 256 259 262 261 259 256 254 256 257 256 255 258 259 258 260 261 259 259 259 259 264 265 263 263 262 262 267 270 267 257 245 243 233 215 208
346 324 353 294 285 346 16 322 40 78 119 97 76 89 312 24 53 25 340 349 43 49 43 2 304 283 342 33 48 42 37 27 22 19 19 21 25 26 23 21 21 23 20 18 17 14 12 7 3 356 348 341 337 335 331 320 302 285 273 268 263 261 260 260 263 265 265 263 260 258 258 258 257 259 260 259 257 259 260 259 259 262 264 263 263 262 264 264 268 271 266 258 242 235 228 213 206
329 326 353 283 288 331 21 344 22 31 82 82 68 68 331 72 68 37 8 9 50 55 70 15 327 316 3 14 23 23 26 21 23 26 25 26 29 29 27 26 25 25 26 25 22 20 17 12 7 0 354 348 341 335 329 325 318 308 293 280 272 267 265 264 264 264 264 264 264 262 258 258 258 256 257 256 254 257 260 259 258 260 259 257 261 263 266 266 268 270 266 262 241 230 225 212 205
337 328 311 280 293 320 46 14 41 35 80 93 94 26 28 88 77 57 47 9 49 53 112 43 355 360 38 37 23 18 24 22 28 31 29 30 31 30 27 27 26 25 27 26 23 21 19 17 13 7 1 352 345 338 330 323 317 316 309 298 285 275 271 270 267 265 263 261 262 262 259 256 256 256 257 255 253 255 258 259 256 254 252 251 256 260 265 265 267 268 266 264 243 229 224 212 203
346 330 327 278 285 8 25 2 45 20 51 111 157 58 52 87 81 85 58 334 96 3 97 59 41 59 59 51 34 33 32 28 34 35 34 31 29 29 26 25 25 24 25 24 23 21 17 16 15 12 7 359 351 342 334 328 320 316 313 307 298 287 279 274 269 266 263 262 260 260 259 255 253 252 253 253 251 251 255 258 259 257 249 247 252 256 262 264 266 266 265 262 242 228 219 209 204
333 327 293 267 265 67 4 342 36 3 335 36 60 52 49 52 59 83 290 264 178 71 59 57 65 66 56 50 39 40 39 36 37 36 35 30 26 26 23 22 22 20 19 20 20 19 15 13 12 9 8 4 358 349 340 332 325 319 315 311 304 294 284 277 272 266 263 261 261 259 256 253 251 249 249 251 249 248 252 254 257 259 251 248 252 253 258 264 268 265 262 257 240 227 215 207 208
296 260 265 284 352 60 329 340 16 357 355 360 6 37 38 30 39 10 314 236 128 67 48 49 70 66 53 46 40 42 41 39 38 37 35 29 24 23 22 18 18 16 12 13 14 15 13 9 9 6 5 3 0 356 348 338 329 323 319 314 309 301 291 282 275 269 263 260 260 258 255 250 247 249 251 251 250 250 251 251 250 249 247 248 250 251 251 255 264 263 260 251 233 223 215 206 206
258 316 295 305 32 10 330 356 353 351 1 352 1 15 13 41 41 339 19 94 69 55 37 40 63 60 55 46 40 42 41 40 39 39 35 30 25 19 20 17 16 15 9 8 9 12 10 7 7 5 3 0 360 358 352 344 335 327 319 313 309 307 303 293 282 273 267 262 260 259 257 252 247 249 253 252 253 255 255 253 247 241 240 242 246 246 241 241 252 252 251 239 221 216 215 205 201
304 17 306 305 34 347 351 352 338 359 6 1 354 338 349 44 44 302 57 88 60 49 39 40 51 49 55 48 41 42 41 40 37 39 37 31 26 19 17 15 12 11 8 6 7 10 9 5 4 3 2 360 359 357 352 348 341 332 323 315 308 306 304 302 293 282 273 267 263 260 258 254 250 250 251 253 254 254 254 251 245 238 234 237 240 239 235 231 238 243 241 229 217 212 208 201 199
23 357 197 130 354 289 142 329 326 14 17 356 309 307 360 14 37 334 16 94 64 49 51 51 55 51 52 49 43 41 40 40 35 36 37 32 28 23 18 15 10 8 8 5 6 8 5 3 2 0 360 358 358 355 351 350 346 339 332 324 315 307 301 300 299 294 284 274 267 264 260 254 250 252 252 253 253 250 248 246 240 231 226 230 233 232 230 225 231 240 234 226 218 211 204 196 199
284 238 112 93 7 302 136 313 328 38 22 312 303 350 2 313 74 49 49 86 74 63 67 61 63 61 61 56 48 42 39 38 33 32 33 31 28 24 19 14 9 6 7 4 4 5 1 360 359 359 358 357 356 353 350 349 346 342 337 330 322 314 306 299 296 296 293 285 275 267 263 256 250 250 251 253 252 247 245 242 233 225 222 225 228 227 224 224 230 221 209 212 213 211 207 198 198
254 226 106 84 21 307 322 302 337 66 25 297 338 23 331 146 94 71 70 83 79 78 76 70 67 65 69 64 54 47 40 36 33 31 29 28 25 22 19 13 8 4 5 3 2 1 359 357 356 355 356 355 354 352 350 346 344 341 336 332 326 320 314 306 299 296 296 294 287 276 267 260 254 250 250 251 250 245 243 241 231 224 221 222 224 223 217 215 219 205 191 199 207 203 199 194 192
214 230 134 112 328 290 296 294 319 80 184 290 329 304 254 159 111 90 86 87 85 81 75 78 75 66 67 64 59 54 45 40 34 32 31 27 23 19 17 14 8 4 2 360 359 358 355 353 352 352 352 352 352 352 348 344 343 340 336 332 328 324 318 312 306 301 297 296 293 288 279 268 260 255 250 247 248 247 242 239 233 226 221 221 222 219 213 205 203 199 192 195 202 199 191 187 187
205 217 145 148 219 241 267 276 282 225 194 324 320 271 203 140 108 99 99 96 93 90 86 86 83 74 68 62 61 58 49 42 34 31 28 25 21 17 16 13 7 3 0 355 354 353 350 349 348 349 348 347 348 348 346 343 341 338 335 332 327 322 318 314 310 305 300 297 293 291 287 279 269 260 252 245 244 245 239 235 232 223 217 218 215 212 210 204 199 197 196 195 197 197 191 185 185
211 314 207 232 245 209 232 261 239 188 153 10 332 320 125 122 105 100 109 105 102 101 98 92 91 86 74 64 59 56 54 46 36 28 24 23 19 14 14 12 6 2 356 351 351 349 347 347 345 346 346 344 345 345 343 341 338 335 333 330 327 321 316 313 310 306 302 298 294 290 288 286 279 268 258 249 243 241 235 230 223 211 208 209 207 209 209 205 201 198 197 195 193 191 189 186 183
229 287 279 271 268 226 199 250 214 147 34 3 336 327 133 149 137 118 122 118 118 109 101 96 91 88 80 73 61 53 56 51 39 28 22 22 18 11 7 7 4 358 355 351 350 348 347 347 345 345 346 345 344 343 342 339 336 334 330 328 325 322 318 313 310 307 305 301 296 292 288 286 285 276 263 252 242 236 229 221 212 202 203 204 205 209 206 205 207 203 201 198 193 190 188 190 187
261 292 295 259 236 209 178 230 214 149 264 351 325 307 201 175 167 136 137 129 124 113 105 103 92 88 84 80 73 55 53 48 40 32 23 19 17 8 1 4 0 355 354 350 347 347 347 347 345 344 344 343 342 341 341 338 335 332 329 327 324 322 320 317 312 309 307 304 301 296 290 285 283 279 270 258 245 235 226 218 209 201 201 203 206 209 205 207 211 206 207 205 202 199 190 188 189
287 305 293 224 187 179 189 208 197 180 208 358 326 307 209 187 145 131 137 131 123 117 112 110 95 88 81 79 82 64 49 39 36 36 25 15 13 6 358 358 356 351 350 347 346 346 346 345 343 343 341 340 339 337 336 334 332 330 327 325 323 322 321 319 317 313 310 308 306 302 296 288 282 279 274 265 252 241 228 217 210 204 205 207 205 205 202 204 209 206 206 207 206 203 191 186 187
272 262 236 175 166 191 198 195 187 193 184 39 355 331 234 183 132 128 135 130 124 118 113 107 91 83 79 71 66 56 48 34 31 33 23 11 8 4 355 353 352 349 347 345 345 344 344 342 339 340 339 338 337 334 332 329 327 326 323 321 321 322 321 321 319 317 315 313 311 307 303 296 286 279 273 267 259 251 238 220 212 208 208 211 206 201 200 200 205 205 203 202 199 195 189 186 186
248 233 228 213 216 196 181 180 176 185 176 142 146 278 252 128 122 132 133 128 122 113 105 98 90 84 81 70 53 35 41 39 31 27 19 9 3 359 352 349 349 347 345 343 341 341 341 339 337 337 336 336 334 331 329 326 324 322 320 318 320 320 320 321 320 319 318 315 314 312 309 305 296 286 276 268 261 255 248 234 225 214 205 205 202 198 198 198 200 199 197 195 188 185 185 184 184
231 223 295 251 266 180 170 173 173 178 195 166 174 267 261 111 129 137 128 129 120 116 116 107 99 91 82 67 58 28 29 41 30 22 16 7 360 357 350 347 346 344 343 340 339 339 338 335 333 333 332 332 329 327 326 323 320 318 316 314 316 317 317 318 319 318 317 315 314 312 311 308 304 299 288 277 266 258 252 244 240 229 209 198 195 193 191 191 192 193 193 191 182 179 182 182 183
225 183 307 320 337 296 192 204 190 179 256 199 185 247 268 137 145 135 131 139 125 123 126 116 109 98 92 69 63 35 27 38 23 16 12 3 357 354 349 346 343 340 338 336 336 336 333 330 329 328 327 326 324 322 322 319 316 314 312 311 311 313 314 316 315 314 314 314 314 312 310 309 308 307 303 295 281 266 257 249 245 240 223 206 198 191 188 188 187 188 190 190 184 180 180 180 182
292 3 344 305 303 313 288 238 202 176 188 235 250 257 268 163 151 150 145 143 130 130 128 125 120 105 106 87 68 37 32 38 14 8 7 359 354 351 347 345 342 339 337 333 332 331 328 327 327 325 323 321 319 317 316 313 311 310 309 308 307 308 310 312 311 311 310 311 313 311 309 309 311 310 308 306 298 280 266 256 252 248 236 218 206 192 188 189 188 188 188 188 186 181 179 180 180
314 312 328 302 306 313 292 275 210 194 182 257 290 268 264 166 151 161 153 146 134 130 126 127 121 112 110 88 72 43 40 44 2 0 7 360 353 350 346 346 345 342 339 336 334 332 330 331 328 324 322 319 317 315 313 309 307 306 305 306 305 305 306 307 308 307 306 306 309 310 309 309 311 312 311 309 308 298 282 267 258 254 244 226 214 200 190 189 187 185 185 185 186 184 182 181 180
303 295 304 289 296 283 276 281 184 212 275 277 281 274 267 204 162 164 156 143 130 127 129 130 126 120 101 80 70 44 42 37 349 4 14 2 352 350 349 350 348 344 341 338 335 333 334 335 331 328 326 323 320 317 315 312 308 305 304 304 304 304 304 304 304 303 302 302 304 306 307 308 312 316 316 312 310 311 304 288 269 256 246 229 215 206 192 186 186 183 181 182 183 183 183 181 180
281 281 265 258 267 263 274 291 134 116 22 287 296 288 274 261 179 163 155 138 135 139 142 137 129 119 99 92 80 48 50 11 1 20 16 359 350 352 353 353 350 345 343 339 335 334 335 334 332 330 329 326 323 320 317 314 310 307 305 303 303 302 303 302 300 299 299 299 300 302 302 305 313 318 318 315 312 313 316 310 293 270 252 233 216 208 194 184 184 184 181 180 179 178 179 180 180
263 256 256 258 255 264 294 324 118 106 75 268 279 270 266 270 183 155 154 150 152 150 143 136 128 123 107 102 98 55 43 8 7 22 9 354 353 357 356 353 348 344 342 338 335 334 334 332 330 328 327 325 323 321 318 314 310 308 305 303 302 301 300 298 295 295 296 296 297 297 296 302 311 317 319 317 312 308 310 314 309 290 262 239 223 213 197 184 183 184 180 178 178 178 178 179 178
259 248 253 257 255 301 320 360 78 19 357 272 270 264 269 276 168 153 160 153 142 130 125 123 121 116 100 95 102 48 21 4 5 13 358 353 357 358 356 351 346 342 338 335 333 332 331 328 326 325 324 323 321 320 317 313 310 307 303 301 300 298 296 294 292 292 293 292 293 292 292 301 308 314 318 319 314 305 297 300 309 302 273 243 226 216 199 184 182 184 181 177 178 179 180 180 180
245 248 257 261 324 32 293 307 352 325 297 271 276 272 271 270 146 150 151 130 121 118 117 119 118 111 114 124 103 64 22 3 1 353 345 351 355 357 357 351 344 340 336 334 332 330 327 323 323 327 327 323 320 319 316 313 311 307 303 299 297 294 293 293 292 290 289 288 289 289 290 297 306 312 316 319 317 310 293 286 298 303 284 253 228 218 207 190 182 184 184 179 176 177 179 183 185
263 273 275 259 14 23 264 295 317 304 284 270 291 288 257 178 157 161 133 126 137 142 143 140 135 132 147 144 90 64 33 16 349 330 334 341 349 357 357 350 341 337 335 332 329 326 323 322 324 328 327 323 321 320 318 314 310 308 305 301 298 295 293 292 290 289 289 288 287 286 288 293 302 308 312 318 319 313 297 282 285 296 292 272 248 229 218 204 188 184 186 182 179 177 177 181 187
279 278 108 131 286 293 283 292 306 308 282 253 28 316 277 160 164 168 140 155 164 160 161 150 143 148 138 96 68 46 23 3 313 310 321 328 350 358 352 345 339 335 331 327 324 325 325 324 325 326 323 319 319 319 317 313 309 307 306 303 301 298 294 291 288 289 289 287 285 285 287 290 296 302 307 315 319 314 299 281 278 286 293 287 271 251 231 215 199 190 187 184 183 180 176 174 183
274 217 146 35 277 269 269 277 298 278 256 263 60 296 277 200 180 174 164 175 172 166 161 142 149 149 106 83 70 45 1 318 297 303 309 337 360 357 344 340 339 333 327 325 326 327 325 324 325 323 318 314 313 314 314 310 304 302 302 300 298 296 293 290 288 288 287 286 284 283 285 287 291 295 302 311 317 315 302 282 273 277 288 292 284 269 251 230 211 199 189 185 184 181 177 175 181
243 207 194 282 261 258 259 259 249 238 265 275 225 227 258 267 223 174 166 170 173 174 160 147 153 124 94 85 73 38 325 298 299 300 317 358 3 351 339 337 335 329 326 327 329 327 326 326 325 321 317 313 312 313 312 308 305 306 307 305 302 297 293 290 289 289 287 287 285 282 283 284 287 290 296 305 312 315 307 288 273 269 278 287 290 281 262 245 227 209 196 187 184 182 181 181 181
212 203 224 247 247 250 251 249 245 251 278 273 225 208 253 268 213 147 160 170 182 179 162 156 141 107 98 88 60 354 309 300 310 319 348 5 357 344 336 332 331 331 331 333 331 328 327 327 325 321 317 314 314 314 313 313 315 317 316 313 307 301 297 294 292 289 286 287 287 284 282 281 283 285 289 299 308 313 310 296 283 272 271 278 288 290 270 251 235 216 203 193 187 184 184 184 181
251 330 283 257 247 248 246 239 245 258 263 266 247 208 231 265 159 148 173 185 189 178 154 144 131 114 103 82 45 315 306 307 320 348 4 359 348 337 330 330 333 335 336 334 329 327 325 325 326 323 318 315 316 316 316 315 314 315 315 312 307 304 302 301 297 290 285 285 286 284 282 278 278 279 283 291 301 310 311 301 289 278 277 276 280 291 280 254 238 222 206 198 192 187 186 186 185
357 343 291 274 260 247 234 221 228 270 253 263 276 224 223 260 199 166 186 182 161 157 143 130 121 109 99 83 354 321 336 332 343 4 1 348 337 331 329 331 334 335 335 332 328 326 323 322 325 323 319 318 318 317 316 313 309 310 312 309 305 304 306 304 299 294 289 284 284 285 283 278 276 276 277 283 293 305 312 306 294 286 289 287 277 287 289 260 237 227 213 201 194 190 188 188 188
46 337 293 315 297 254 242 243 119 243 245 247 14 9 286 243 232 151 158 129 120 134 137 129 117 97 95 47 6 1 352 350 3 4 351 341 333 331 332 333 335 336 335 332 329 328 324 322 324 322 321 321 319 317 319 316 312 311 311 306 302 303 307 305 299 297 296 290 284 284 282 278 275 271 268 276 287 298 310 310 302 294 293 297 288 283 290 275 245 227 216 207 198 193 193 191 190
180 243 297 317 319 303 277 314 149 234 245 181 96 43 318 241 248 189 158 131 113 123 122 119 111 76 53 24 12 5 358 4 6 355 342 337 332 332 335 335 336 336 332 329 328 329 328 324 323 323 322 321 319 318 320 319 315 315 314 310 308 307 306 305 299 295 297 299 293 287 282 276 272 266 260 271 282 290 304 311 311 301 291 297 298 287 285 288 275 242 217 208 201 197 196 196 194
203 210 175 187 296 316 274 257 239 248 244 189 140 40 295 259 264 193 148 130 120 119 112 112 100 76 57 31 24 10 6 9 359 347 339 332 330 331 332 332 331 330 328 327 329 330 329 326 324 322 321 323 321 318 317 316 315 317 317 316 315 309 303 302 299 293 293 299 302 298 291 282 273 267 263 268 278 286 297 307 314 312 298 295 297 292 284 288 292 274 232 208 203 200 197 197 198
216 169 128 169 174 226 255 248 231 266 272 240 155 14 260 251 279 131 125 125 123 118 118 112 101 100 104 68 41 20 6 5 351 340 331 324 326 328 327 328 327 325 325 328 331 331 329 327 327 323 321 323 323 320 319 318 317 318 317 317 316 310 304 305 306 302 297 296 298 299 297 290 279 272 269 266 272 282 291 299 310 314 308 301 297 293 288 282 288 288 260 218 204 203 200 197 199
254 111 101 214 195 205 257 260 184 276 300 272 184 210 229 175 112 122 124 135 133 125 119 105 91 81 74 48 27 14 359 354 340 330 324 321 324 326 326 327 325 323 324 327 331 330 328 327 327 323 318 318 320 322 321 318 317 317 316 315 312 310 311 311 310 309 306 303 301 301 301 295 284 274 271 266 268 278 287 294 302 311 312 307 300 295 293 284 280 286 280 241 208 202 202 198 198
225 81 172 231 187 137 276 298 13 59 303 272 189 246 261 111 130 152 146 157 144 124 104 93 75 54 59 45 5 360 354 344 330 324 322 319 322 324 325 324 322 323 325 327 329 329 326 324 323 319 315 315 319 321 319 316 315 314 314 313 310 309 310 309 308 308 307 305 304 304 306 304 294 280 269 266 268 274 283 289 293 303 314 311 303 299 298 292 281 279 284 268 223 203 202 199 195
132 193 209 212 53 83 123 311 1 23 275 259 177 223 242 207 222 183 166 174 149 115 100 97 77 65 80 305 2 1 347 335 324 323 318 314 319 324 325 322 321 323 323 324 325 323 321 319 317 316 315 315 319 320 318 316 315 314 314 313 310 308 307 305 306 307 307 306 303 302 303 306 306 297 279 266 266 272 276 282 284 290 307 313 308 305 303 298 288 279 281 281 249 211 202 201 195
125 217 228 99 121 202 146 148 220 244 267 270 235 236 231 216 210 175 177 180 141 100 84 83 60 61 62 348 5 352 337 329 323 323 316 314 319 322 321 318 319 320 319 319 320 319 320 317 316 321 321 318 318 319 318 316 316 316 315 313 310 308 305 303 304 306 307 306 304 302 300 301 306 309 300 278 264 266 271 273 275 280 295 308 310 310 309 307 298 285 279 285 273 229 204 201 198
81 357 326 105 169 194 172 164 185 227 260 278 280 273 243 220 193 157 162 152 126 105 62 62 44 56 44 6 356 339 336 333 327 323 315 318 320 319 319 319 320 319 318 318 319 321 322 318 318 324 325 321 320 320 320 318 315 313 312 311 310 308 305 304 304 304 305 305 305 303 301 300 302 308 312 303 278 262 262 266 268 270 282 300 307 310 312 313 308 295 281 281 282 252 211 199 197
153 172 208 203 185 162 201 232 166 209 249 262 280 279 251 222 196 128 131 129 130 135 128 154 152 93 56 10 354 339 337 330 324 321 317 318 318 318 322 323 321 319 319 319 320 322 322 318 319 323 325 323 321 320 321 319 314 311 310 309 309 308 306 305 306 304 303 304 305 303 303 304 304 304 310 314 302 276 262 261 263 265 273 291 302 307 312 315 311 300 286 277 282 269 227 200 195
181 194 197 198 190 155 215 250 196 193 237 219 251 272 257 200 201 118 122 130 133 134 141 157 125 89 53 2 354 340 333 330 324 322 321 317 315 319 325 324 322 321 321 320 321 322 322 319 319 321 322 321 319 319 321 319 315 311 310 309 308 307 305 304 305 305 302 302 302 303 305 306 305 304 305 310 312 299 279 266 260 261 269 281 294 302 308 312 310 301 290 278 278 275 244 206 194
Height
776 777 776 777 775 776 776 777 791 788 787 793 785 790 791 781 782 783 785 784 787 787 782 783 781 781 785 788 789 787 787 789 791 799 804 789 779 783 781 781 781 779 779 778 778 777 777 776 777 778 779 780 781 782 782 783 783 784 785 785 786 787 787 788 789 790 791 791 792 792 792 792 793 793 793 793 793 793 793 793 793 793 793 793 793 792 792 793 793 794 794 795 796 796 796 797 798
777 778 776 777 775 780 778 775 795 792 787 797 789 790 788 779 783 788 788 788 789 786 781 781 781 782 782 782 783 786 786 781 780 785 784 779 780 781 781 782 781 780 780 779 779 777 777 776 776 777 778 779 780 781 782 783 784 784 784 785 785 786 787 788 788 789 790 790 791 791 792 792 792 793 793 793 793 793 793 793 793 793 793 792 792 791 791 792 793 793 794 794 794 795 795 796 797
777 777 776 778 776 779 779 779 796 791 788 800 796 787 782 784 788 788 786 786 785 782 782 781 782 783 782 784 784 789 788 779 779 780 779 781 783 783 783 782 781 781 780 779 779 778 778 777 777 777 778 779 780 781 782 783 784 784 784 784 785 785 786 787 787 788 789 789 790 790 791 791 791 792 792 792 792 792 792 793 792 792 792 792 791 791 791 791 792 793 793 793 793 794 794 795 795
778 778 777 778 779 781 783 787 788 785 792 797 798 789 782 789 788 786 783 783 782 781 783 782 785 781 782 790 786 786 787 782 781 781 782 785 787 786 784 782 782 781 780 779 778 779 779 778 778 777 778 779 780 781 782 783 783 784 784 785 785 785 785 786 786 787 787 788 788 789 789 790 790 791 792 792 792 792 792 792 792 791 791 791 790 791 791 791 791 792 792 792 793 793 793 794 794
778 778 778 778 784 785 785 787 780 785 798 793 795 791 784 788 786 787 782 781 782 783 784 784 788 781 780 787 783 787 788 783 782 783 786 788 788 787 784 783 782 781 781 780 779 779 779 779 778 778 778 778 779 780 781 782 783 784 784 785 785 785 785 785 786 786 786 787 787 788 788 789 789 789 790 790 791 791 791 791 791 791 790 790 790 790 790 790 790 791 791 791 792 792 792 793 794
778 778 777 779 782 781 787 790 783 789 793 785 791 790 785 787 786 786 781 781 781 781 784 784 789 786 785 782 778 786 785 784 786 788 789 789 788 786 785 783 783 782 781 781 780 779 779 780 779 779 779 779 779 780 781 781 782 783 784 785 785 785 785 785 785 786 786 786 786 787 787 788 788 788 788 788 789 789 790 790 790 789 789 789 789 789 789 789 790 790 790 790 791 791 791 792 793
779 781 779 783 782 781 793 790 784 791 787 781 787 788 786 787 785 786 784 784 783 782 784 785 786 788 791 783 782 786 783 785 789 791 791 789 788 786 785 783 783 783 781 781 781 779 779 780 779 779 779 779 779 779 780 780 781 782 783 784 784 784 784 785 785 785 785 785 785 786 786 786 787 786 786 786 787 787 788 788 788 788 788 788 788 788 788 788 788 789 789 789 790 790 790 791 792
780 783 779 788 789 786 792 786 784 788 785 781 782 786 786 786 785 787 787 786 787 785 785 785 785 791 792 783 789 791 784 788 790 792 790 788 788 786 786 784 784 783 783 782 781 781 780 779 779 779 779 779 779 779 780 780 780 781 782 783 783 784 784 784 784 784 784 784 784 785 785 785 785 785 785 785 785 786 786 787 787 787 787 787 787 787 787 787 787 787 788 789 789 789 789 790 791
779 783 782 790 794 790 786 782 785 784 783 782 781 785 784 784 785 787 788 786 786 785 786 785 785 793 791 784 792 792 787 791 791 790 788 788 788 787 786 785 785 784 783 783 782 782 780 779 779 778 778 778 778 779 779 779 779 780 780 781 782 782 783 783 783 783 783 783 783 783 783 783 784 784 784 783 784 784 785 785 785 785 785 786 786 786 786 786 786 786 786 787 788 788 788 789 790
779 782 785 791 794 795 789 783 786 784 782 781 782 784 784 785 785 786 787 787 784 785 786 784 785 791 790 788 793 792 792 792 789 788 788 789 788 788 787 786 786 785 784 783 782 782 781 781 779 779 778 778 778 778 778 778 779 779 779 779 780 780 781 782 782 782 782 782 782 782 782 781 782 782 782 782 783 783 783 784 783 784 784 784 784 785 784 784 784 785 785 785 786 786 786 788 789
784 782 783 793 797 796 792 786 785 785 781 781 783 784 784 784 785 787 787 787 783 785 787 784 788 790 788 790 794 794 792 789 788 790 791 790 789 789 788 788 788 786 786 784 783 783 782 781 780 780 779 779 779 778 778 778 778 778 778 778 779 779 779 780 780 780 780 781 781 781 781 780 780 780 781 781 782 782 782 782 782 782 783 783 783 783 783 783 783 783 783 784 785 785 785 786 787
790 787 785 798 797 790 788 786 785 784 782 783 787 786 783 783 786 790 790 789 785 787 790 788 789 788 789 792 793 792 789 789 791 793 793 791 790 790 790 789 788 787 787 785 785 784 783 783 782 781 780 780 779 779 778 778 778 778 778 778 778 778 777 778 778 779 779 779 779 780 780 779 779 779 779 780 781 780 780 781 780 780 782 782 781 781 781 781 782 782 782 782 783 784 784 785 786
791 790 793 800 790 783 785 786 784 784 787 787 789 786 782 784 789 791 790 789 788 792 791 787 785 785 790 790 790 790 790 793 794 794 794 792 792 791 791 790 789 788 787 786 785 785 784 783 783 783 782 781 780 779 778 778 778 778 777 777 777 777 776 776 776 777 777 777 777 778 778 778 778 778 778 778 779 778 779 779 779 779 780 780 780 780 780 780 781 781 780 780 781 782 782 783 784
790 788 794 800 786 782 785 787 786 789 793 789 787 784 781 785 789 788 790 792 791 791 789 785 782 786 793 792 794 794 794 796 795 796 795 794 794 792 792 791 790 789 787 787 786 786 785 784 784 784 783 782 781 780 779 778 778 778 777 777 776 776 775 775 775 775 774 774 775 775 775 776 776 776 776 776 776 776 776 777 776 776 777 778 778 779 779 779 779 779 778 778 779 779 780 780 782
788 788 792 797 790 785 787 788 787 791 795 789 786 783 782 785 785 787 790 793 792 785 786 785 781 790 799 801 804 800 798 800 798 798 796 796 795 794 794 793 792 790 789 788 788 787 786 786 784 784 784 783 782 781 780 779 778 777 777 776 775 774 774 774 774 773 772 772 772 772 772 773 774 774 774 774 773 773 773 774 773 774 775 775 776 776 777 777 778 777 776 776 777 777 778 779 780
785 789 794 799 794 788 789 787 786 794 794 787 785 782 786 787 783 788 788 788 790 784 785 788 787 795 801 803 806 803 802 802 800 799 797 797 796 796 795 794 794 792 792 791 790 789 788 787 785 785 784 784 783 782 780 779 778 777 776 776 775 774 773 773 772 772 771 770 770 769 769 770 771 772 772 772 771 771 771 771 772 772 773 773 773 774 775 776 776 775 774 774 775 775 776 777 778
785 791 799 802 794 791 792 788 790 795 792 786 784 783 790 791 784 786 784 784 789 787 788 791 793 797 800 803 805 803 804 803 802 800 798 798 797 797 797 796 796 794 794 793 792 791 790 789 787 787 785 785 783 782 781 779 778 777 776 775 774 773 772 771 771 770 770 769 768 767 767 768 769 769 769 770 770 770 770 770 770 771 772 771 771 771 772 773 774 774 773 773 773 773 773 775 776
790 795 800 801 796 793 790 787 788 789 789 788 785 785 790 793 790 786 785 786 789 790 792 793 796 799 802 804 804 804 805 804 803 802 800 800 799 799 798 798 797 797 796 795 794 793 792 791 789 789 787 786 784 782 781 779 778 777 776 774 773 772 771 770 769 768 768 767 766 766 766 766 766 766 767 768 768 768 768 768 768 769 769 769 768 768 769 770 771 772 771 771 771 772 773 774 775
793 796 800 800 795 790 785 784 785 786 789 789 786 787 789 792 791 788 790 793 792 796 798 797 800 802 804 805 805 806 806 805 804 803 802 802 802 801 801 800 800 799 798 797 796 795 794 793 792 791 789 788 785 783 781 779 778 776 775 774 772 771 770 769 767 767 766 765 764 764 764 765 765 765 765 766 766 765 765 766 766 766 766 766 766 766 766 766 767 768 769 769 769 770 772 773 774
791 795 802 798 791 787 783 783 785 785 788 790 790 788 789 791 789 789 792 795 797 801 803 802 805 806 806 807 807 808 807 806 805 805 805 805 804 804 803 803 802 801 801 800 798 797 796 795 794 793 791 789 787 785 782 780 778 777 775 773 772 770 769 768 767 765 764 764 763 763 763 763 764 763 763 763 763 763 763 763 763 764 764 764 764 763 764 764 765 766 767 767 767 768 770 772 773
792 794 798 793 788 788 785 783 784 785 788 791 791 789 791 790 788 790 790 797 804 804 805 805 807 808 808 809 808 809 808 807 807 807 807 807 807 806 806 805 805 804 803 802 800 799 798 797 795 794 792 790 788 786 783 781 779 777 774 773 771 770 768 766 765 765 764 763 762 761 761 761 762 761 761 761 761 761 760 760 760 762 762 762 762 762 762 763 764 764 764 765 765 766 767 770 771
794 791 790 788 788 789 785 782 784 786 789 791 790 790 792 789 789 792 793 802 808 806 805 805 806 808 808 809 810 810 809 808 808 808 808 808 808 807 807 807 806 805 804 803 801 800 799 798 796 795 793 791 789 787 784 782 780 777 775 773 771 769 768 766 764 763 762 762 761 760 760 759 759 759 759 758 758 759 757 756 757 758 759 759 760 760 759 761 763 763 762 762 763 764 766 768 768
795 791 787 788 789 789 785 783 785 786 790 791 790 790 790 790 794 795 796 804 806 805 806 806 807 808 809 810 811 811 811 811 811 811 811 810 810 809 808 808 807 806 805 803 802 801 799 798 797 795 793 791 789 787 785 783 780 778 775 773 770 768 766 765 763 762 760 760 760 759 758 757 757 757 756 755 755 756 755 754 754 754 754 756 757 758 757 758 761 762 762 761 762 762 763 765 766
794 793 788 789 789 788 786 784 785 786 790 790 788 789 789 792 796 797 800 805 805 806 806 807 809 809 810 811 812 814 814 814 813 814 814 812 812 811 810 809 808 807 805 804 802 801 799 798 796 795 793 791 789 787 785 782 780 777 775 773 770 768 765 763 762 760 759 758 757 757 756 756 755 754 753 752 752 752 753 752 752 751 750 752 754 755 755 756 759 760 760 760 761 761 761 762 764
791 792 788 788 789 787 786 785 786 787 788 788 787 789 788 789 793 799 804 806 806 807 808 808 810 811 811 812 814 815 816 815 815 815 815 814 813 812 811 810 808 807 805 804 803 801 800 798 796 794 792 790 789 787 785 782 780 777 774 772 769 767 765 762 760 758 757 756 756 755 754 754 752 751 750 749 748 748 749 749 749 748 747 748 750 751 752 755 757 757 758 758 759 760 760 761 762
788 789 788 788 788 786 786 786 786 787 787 788 789 789 788 787 792 802 805 806 808 808 809 809 810 812 812 814 815 816 817 816 816 816 816 815 813 812 811 810 809 808 807 805 803 801 799 798 796 794 792 791 789 787 784 782 780 777 774 771 769 766 764 761 759 757 755 754 753 753 753 752 750 749 747 745 745 744 745 746 746 745 743 743 746 748 749 753 755 755 756 756 757 758 759 760 761
786 787 788 787 788 785 786 787 785 787 788 788 791 791 789 786 790 804 807 804 807 808 810 810 810 812 813 815 816 817 817 817 817 817 816 814 813 812 811 811 810 808 807 804 802 801 799 797 795 793 792 790 787 785 783 781 778 776 773 770 768 765 763 760 757 755 753 752 751 750 750 749 748 746 744 743 741 741 740 740 741 741 739 739 741 744 746 749 751 752 753 754 755 755 756 757 759
785 787 789 787 787 786 786 788 786 787 789 787 789 791 791 788 790 801 804 803 806 808 810 811 811 812 813 815 817 818 818 817 817 816 815 814 813 813 812 811 810 809 807 805 803 801 799 797 795 793 791 789 787 784 782 780 777 775 772 770 767 765 762 759 757 754 751 749 748 747 746 745 744 743 742 740 739 737 735 734 735 735 735 735 736 740 742 745 747 749 751 753 754 755 755 755 757
786 788 793 788 786 790 788 787 786 787 790 787 788 793 793 792 794 797 799 802 804 808 811 812 812 812 813 815 817 818 817 816 816 815 815 815 815 815 813 812 811 809 807 805 803 801 799 798 796 794 792 790 788 785 783 780 778 775 772 769 766 764 761 758 756 754 751 748 745 743 742 742 740 739 738 737 736 735 731 728 727 727 729 731 732 735 738 740 743 746 748 751 752 753 754 754 756
789 788 792 792 794 796 788 786 786 787 790 786 790 801 795 789 793 796 798 801 804 808 811 811 811 811 813 815 816 817 817 816 815 815 816 816 816 815 814 813 812 809 807 805 803 801 800 798 797 795 793 791 788 785 782 780 777 774 772 769 766 763 760 758 755 753 750 747 745 741 739 738 737 735 734 733 733 732 729 725 722 722 723 725 728 730 732 735 738 741 745 748 749 750 751 752 754
790 788 791 793 799 798 786 784 787 790 791 784 793 806 797 790 796 797 798 800 803 808 810 810 810 812 814 815 816 817 816 816 815 816 817 817 816 816 815 813 811 809 806 804 803 801 800 798 797 794 792 790 787 785 782 779 776 773 770 768 765 762 760 757 754 751 749 746 744 741 738 735 734 732 731 730 729 728 727 725 723 720 717 718 721 723 726 729 733 737 740 744 745 747 749 750 752
790 793 797 791 794 796 787 784 786 790 790 783 793 804 797 796 799 796 798 801 802 807 809 810 810 812 814 815 816 817 815 815 815 816 817 817 817 815 814 812 809 807 805 804 802 801 799 798 796 794 792 790 787 785 782 779 775 771 769 766 764 762 759 756 753 751 748 745 743 740 738 735 731 730 729 727 725 723 723 723 722 720 716 714 716 717 720 724 728 733 736 739 741 744 747 749 751
792 794 800 794 794 796 791 788 785 787 790 785 791 799 795 798 800 797 799 800 801 806 808 809 811 812 814 814 815 815 814 814 815 816 816 816 816 814 813 810 809 807 806 804 802 800 799 797 796 793 791 789 786 784 781 778 775 771 767 764 762 759 757 755 752 750 746 744 741 739 737 734 731 727 725 724 723 720 719 719 720 720 718 714 714 713 714 719 724 729 733 735 737 740 744 746 748
798 796 801 798 795 796 796 794 788 786 791 789 790 794 792 795 800 799 799 799 801 805 807 810 811 812 813 814 815 814 814 815 816 816 816 816 815 814 813 811 810 808 806 804 802 800 798 796 795 792 790 787 785 782 779 776 773 770 766 763 760 757 755 753 751 748 744 742 739 737 735 733 730 727 723 721 720 717 715 715 715 717 717 714 711 709 711 715 719 723 728 731 733 735 739 742 745
808 806 807 805 800 800 798 794 791 788 790 792 792 793 789 792 800 799 798 799 801 805 808 810 811 812 813 813 813 813 814 816 816 817 816 816 815 814 813 811 810 808 806 804 802 800 798 796 794 792 789 786 784 781 777 775 771 768 764 761 757 754 752 750 748 745 742 739 737 735 733 730 728 726 723 720 718 716 712 710 710 711 712 710 707 706 708 712 715 718 723 726 730 732 734 737 742
810 808 809 811 808 804 795 789 791 789 791 793 793 793 787 789 798 799 798 799 802 806 808 810 812 812 813 813 813 814 815 816 816 816 816 815 815 814 812 810 809 807 806 804 802 800 798 796 793 791 789 786 783 780 776 773 769 765 762 758 755 751 749 746 744 742 739 736 734 732 730 727 726 723 721 718 715 713 710 708 706 706 705 702 702 702 701 704 710 714 716 721 726 730 733 735 739
806 808 809 809 807 803 792 788 789 787 793 795 790 792 788 784 791 797 799 801 804 807 808 810 812 813 813 813 814 815 815 816 815 815 815 815 815 813 810 808 807 806 805 804 802 800 798 796 793 789 787 785 782 779 775 772 767 763 759 755 751 748 745 742 740 738 736 733 730 729 727 725 722 720 718 715 711 709 707 705 703 701 699 696 696 697 694 695 702 708 711 716 720 725 730 733 737
805 807 807 806 804 800 791 788 789 786 793 798 790 792 789 781 787 795 798 802 804 806 808 810 811 813 813 813 814 815 815 815 814 814 814 815 813 810 808 807 807 805 804 803 801 799 797 795 792 789 786 783 781 779 775 771 767 763 758 754 750 745 742 740 736 734 732 729 727 725 724 722 719 717 716 713 709 705 703 702 700 697 695 693 691 691 689 689 695 701 704 710 715 718 722 726 732
806 806 807 807 800 797 793 788 788 787 794 798 791 791 787 779 785 795 797 800 803 804 807 810 811 812 813 813 814 814 815 815 814 813 814 813 810 808 807 806 806 805 803 802 800 798 796 794 791 788 785 782 779 777 774 770 765 762 758 753 749 744 739 737 733 730 728 725 723 721 720 719 716 713 711 710 707 702 700 701 700 697 693 690 687 686 684 682 688 695 697 701 708 714 718 721 724
804 804 806 805 799 802 804 796 792 792 794 794 790 790 787 783 789 795 797 800 803 806 808 809 811 812 812 812 813 814 815 814 813 813 813 811 809 808 806 805 804 804 802 800 799 797 794 792 789 786 784 781 778 775 772 768 763 758 754 750 747 742 737 734 730 727 724 722 719 718 716 715 713 710 707 706 703 699 697 699 701 699 695 689 684 682 681 678 680 688 692 694 700 707 713 717 720
802 801 803 805 803 807 808 803 798 796 794 791 790 792 785 784 794 796 798 803 805 807 809 810 810 811 811 811 812 813 813 813 813 813 812 810 809 807 806 806 805 804 802 800 797 795 792 790 787 785 782 779 776 774 770 766 760 755 750 746 742 738 734 730 727 724 721 719 716 714 713 712 711 708 704 702 700 697 694 696 699 699 696 690 684 680 680 678 677 681 686 688 691 695 702 710 717
805 804 807 808 809 809 808 806 805 805 802 791 791 799 789 782 792 797 800 804 804 806 807 808 809 809 810 810 811 812 812 813 813 812 811 809 806 804 804 805 805 803 802 800 798 795 792 789 787 784 781 777 774 772 769 764 759 754 749 744 739 735 730 725 724 721 718 715 713 711 709 708 708 706 703 700 697 694 692 692 695 696 694 690 685 681 679 678 676 677 680 682 684 686 693 702 710
810 808 810 810 810 810 809 808 810 812 806 789 789 803 798 787 789 793 799 802 802 803 804 805 808 808 808 809 810 812 813 813 812 811 810 807 803 802 803 804 803 802 800 798 796 794 792 789 786 784 780 776 773 770 767 762 757 752 748 743 738 733 727 721 719 718 715 712 710 707 705 704 704 703 701 698 695 692 690 688 690 692 692 689 686 682 678 676 673 672 674 676 678 682 687 693 700
810 809 810 810 809 810 808 808 811 809 801 792 788 796 800 791 782 784 794 799 800 801 803 805 806 806 808 809 810 811 812 812 811 810 807 804 802 804 804 803 802 801 798 796 794 792 790 787 784 782 778 774 770 767 764 760 755 751 746 742 736 731 725 718 715 714 711 709 706 703 702 700 699 698 697 695 693 689 687 686 686 687 688 687 685 681 678 676 672 670 670 671 673 676 680 685 691
808 808 809 808 807 808 805 806 809 805 802 802 791 790 798 789 779 783 790 795 799 799 801 804 804 806 807 808 810 810 810 810 809 808 805 802 803 805 804 803 802 800 798 796 793 790 787 785 782 779 775 771 767 764 760 757 754 750 746 741 735 729 724 717 712 709 707 705 703 700 698 696 695 694 693 692 690 688 686 684 683 683 684 684 683 680 677 674 671 668 666 667 670 671 673 679 685
805 806 806 806 806 804 804 806 807 804 805 804 792 789 795 788 783 790 791 790 794 795 797 801 803 805 806 807 809 809 809 808 807 805 803 803 805 805 804 802 801 800 798 796 793 790 786 783 780 777 773 770 766 763 759 755 752 749 745 741 735 728 722 717 710 705 703 701 699 696 694 692 691 690 689 689 688 686 684 682 681 681 680 680 680 679 676 672 669 665 663 664 666 668 670 675 680
804 805 803 805 803 800 803 803 803 807 804 799 792 787 791 791 783 783 785 783 783 787 794 800 802 803 805 806 807 807 806 806 805 803 803 805 805 805 804 802 801 799 798 796 792 789 786 782 779 775 771 769 765 762 758 754 750 747 743 739 733 727 722 717 710 703 699 697 694 692 690 688 686 685 684 685 685 683 681 679 678 678 677 676 675 676 674 671 667 664 661 660 662 664 667 671 675
806 807 805 807 803 796 799 799 802 809 803 795 794 789 791 792 778 773 780 780 779 785 793 798 801 802 803 804 803 804 804 803 803 803 803 804 804 803 802 801 800 798 796 794 791 788 784 780 777 774 770 767 764 759 756 752 747 744 740 736 731 726 722 717 710 703 698 694 690 688 686 683 681 680 680 680 681 680 678 676 675 673 673 672 671 672 673 670 666 662 659 658 659 662 665 668 672
808 809 808 812 808 801 802 802 801 802 797 795 797 794 792 785 770 768 778 782 782 788 792 795 799 800 800 801 801 803 803 802 802 803 803 803 802 801 800 798 797 796 794 791 789 786 782 778 775 771 767 765 762 757 754 750 745 741 737 732 728 724 720 715 709 702 697 692 688 685 681 678 676 675 675 675 677 677 676 674 672 670 669 668 668 669 669 668 666 661 657 655 655 658 662 666 668
809 808 806 808 811 813 811 804 799 794 792 793 794 795 791 778 765 765 775 783 785 788 791 793 795 798 800 800 802 802 802 802 802 803 803 802 801 799 798 796 795 793 791 789 786 783 780 776 772 768 764 761 758 754 750 747 743 739 736 731 727 722 717 712 706 701 696 692 688 684 679 675 672 671 670 671 672 674 674 672 670 669 667 667 667 666 665 665 664 661 655 652 652 654 657 661 665
804 801 804 805 805 810 807 802 802 798 795 792 792 793 784 773 769 770 775 782 784 786 789 792 794 797 799 799 800 801 800 801 802 802 802 801 799 798 796 795 793 791 789 787 784 782 778 774 770 765 760 757 755 751 747 744 740 737 734 730 726 721 715 710 705 700 696 692 688 684 679 674 670 667 666 666 667 669 670 669 667 666 665 664 664 663 663 663 662 660 655 650 648 651 655 657 661
803 800 805 806 800 800 800 800 802 805 805 796 791 787 773 768 774 774 776 781 782 785 788 791 795 795 796 798 799 800 800 801 801 801 800 798 797 796 794 793 792 789 787 785 782 780 776 772 768 764 759 755 753 750 747 743 739 735 732 728 724 720 714 709 704 700 696 692 688 684 679 674 669 665 663 662 662 663 664 665 664 662 662 661 660 659 660 660 660 658 655 650 645 647 651 653 657
804 803 804 805 803 801 802 804 803 809 813 798 785 782 770 768 777 776 777 779 779 784 786 789 793 793 795 798 799 799 799 800 800 800 798 796 794 793 792 791 790 787 785 782 779 777 774 771 767 764 758 754 751 749 745 741 737 733 729 726 723 718 714 709 703 698 694 691 686 682 678 673 668 664 661 658 658 658 659 660 660 659 658 658 657 657 658 658 658 656 653 650 645 642 645 648 651
805 806 804 803 805 805 806 816 820 821 820 796 779 781 774 768 774 777 778 777 778 782 785 788 791 792 795 797 797 797 797 798 798 797 796 795 793 792 791 790 788 786 784 781 779 776 774 771 767 763 759 754 750 746 742 739 735 731 727 724 721 717 713 708 703 698 693 689 684 679 676 672 668 664 659 656 655 654 655 655 656 656 656 656 656 656 656 656 655 653 651 650 646 641 641 644 646
804 806 805 803 809 809 808 821 826 821 817 794 773 774 771 762 765 774 777 776 778 782 784 787 789 791 794 795 794 795 795 796 796 796 795 793 792 791 789 788 786 784 782 779 777 775 772 769 765 761 757 752 748 744 740 736 733 730 725 722 719 716 711 706 702 697 692 687 682 678 674 671 667 664 659 655 652 651 651 651 652 652 653 654 654 653 653 653 652 650 648 647 646 642 639 640 643
808 808 805 802 805 806 805 813 815 810 810 798 780 773 766 756 756 766 771 773 779 782 783 786 787 789 792 792 793 793 793 794 794 794 793 791 790 788 786 785 783 780 778 776 774 771 768 765 760 756 752 746 743 740 736 733 730 727 723 720 717 714 710 704 700 696 691 686 681 676 672 669 665 662 659 655 651 648 647 647 648 649 650 651 652 651 649 648 647 646 645 644 644 641 636 636 639
807 808 807 805 804 802 804 808 805 804 807 804 795 781 765 757 759 762 767 773 778 781 782 784 786 788 790 790 791 791 791 792 792 792 791 789 787 785 783 782 779 776 774 771 769 766 763 759 755 751 747 742 738 736 733 730 726 723 720 717 714 712 708 703 698 695 690 685 681 675 671 667 664 661 658 655 652 647 644 644 644 645 647 648 648 647 646 644 643 642 642 641 641 640 635 632 634
799 800 797 799 801 803 810 811 803 803 805 799 796 784 764 758 761 762 767 772 775 776 779 782 784 787 788 788 788 789 789 790 790 789 789 787 784 782 780 778 775 772 769 766 765 762 759 755 751 748 744 740 736 733 731 728 724 721 718 714 711 709 705 701 697 693 688 684 680 675 670 666 662 659 657 654 651 647 643 642 641 642 643 644 644 644 642 642 641 639 638 638 639 639 634 629 629